Time,TemperatureF,DewpointF,PressureIn,WindDirection,WindDirectionDegrees,WindSpeedMPH,WindSpeedGustMPH,Humidity,HourlyPrecipIn,Conditions,Clouds,dailyrainin,SoftwareType,DateUTC
2013-04-18 00:03:00,60.8,23.8,30.20,WNW,302,0.0,3.0,24,0.00,,CLR,0.00,VWS V14.01,2013-04-18 07:03:00,
2013-04-18 00:08:00,60.8,23.8,30.20,NW,305,0.0,3.0,24,0.00,,CLR,0.00,VWS V14.01,2013-04-18 07:08:00,
2013-04-18 00:13:00,60.6,24.6,30.20,WNW,282,1.0,3.0,25,0.00,,CLR,0.00,VWS V14.01,2013-04-18 07:13:00,
2013-04-18 00:18:00,60.4,24.4,30.20,NW,319,1.0,3.0,25,0.00,,CLR,0.00,VWS V14.01,2013-04-18 07:18:00,
2013-04-18 00:23:00,60.2,24.3,30.20,West,280,0.0,4.0,25,0.00,,CLR,0.00,VWS V14.01,2013-04-18 07:23:00,
2013-04-18 00:28:00,60.1,25.1,30.20,WNW,290,0.0,4.0,26,0.00,,CLR,0.00,VWS V14.01,2013-04-18 07:28:00,
2013-04-18 00:33:00,60.0,25.0,30.20,WNW,291,0.0,1.0,26,0.00,,CLR,0.00,VWS V14.01,2013-04-18 07:33:00,
2013-04-18 00:38:00,59.9,25.0,30.20,WNW,290,0.0,1.0,26,0.00,,CLR,0.00,VWS V14.01,2013-04-18 07:38:00,
2013-04-18 00:43:00,59.3,25.4,30.20,WNW,289,0.0,1.0,27,0.00,,CLR,0.00,VWS V14.01,2013-04-18 07:43:00,
2013-04-18 00:48:00,58.8,25.8,30.20,WNW,289,0.0,1.0,28,0.00,,CLR,0.00,VWS V14.01,2013-04-18 07:48:00,
2013-04-18 00:53:00,58.3,25.4,30.20,WNW,290,0.0,1.0,28,0.00,,CLR,0.00,VWS V14.01,2013-04-18 07:53:00,
2013-04-18 00:58:00,57.4,26.2,30.20,WNW,289,0.0,1.0,30,0.00,,CLR,0.00,VWS V14.01,2013-04-18 07:58:00,
2013-04-18 01:03:00,56.5,26.2,30.20,WNW,290,0.0,0.0,31,0.00,,CLR,0.00,VWS V14.01,2013-04-18 08:03:00,
2013-04-18 01:08:00,55.7,26.3,30.20,WNW,290,0.0,0.0,32,0.00,,CLR,0.00,VWS V14.01,2013-04-18 08:08:00,
2013-04-18 01:13:00,55.7,26.3,30.20,WNW,289,0.0,0.0,32,0.00,,CLR,0.00,VWS V14.01,2013-04-18 08:13:00,
2013-04-18 01:18:00,55.7,26.3,30.20,North,6,0.0,1.0,32,0.00,,CLR,0.00,VWS V14.01,2013-04-18 08:18:00,
2013-04-18 01:23:00,55.9,26.5,30.20,NE,39,1.0,2.0,32,0.00,,CLR,0.00,VWS V14.01,2013-04-18 08:23:00,
2013-04-18 01:28:00,56.1,26.7,30.20,NNE,15,1.0,2.0,32,0.00,,CLR,0.00,VWS V14.01,2013-04-18 08:28:00,
2013-04-18 01:33:00,56.2,26.8,30.20,NNE,25,2.0,4.0,32,0.00,,CLR,0.00,VWS V14.01,2013-04-18 08:33:00,
2013-04-18 01:38:00,56.4,26.2,30.20,NNE,23,2.0,4.0,31,0.00,,CLR,0.00,VWS V14.01,2013-04-18 08:38:00,
2013-04-18 01:43:00,56.6,26.3,30.20,North,3,2.0,5.0,31,0.00,,CLR,0.00,VWS V14.01,2013-04-18 08:43:00,
2013-04-18 01:48:00,56.9,26.6,30.20,NNE,27,3.0,5.0,31,0.00,,CLR,0.00,VWS V14.01,2013-04-18 08:48:00,
2013-04-18 01:53:00,57.0,26.7,30.20,NNW,342,3.0,5.0,31,0.00,,CLR,0.00,VWS V14.01,2013-04-18 08:53:00,
2013-04-18 01:58:00,57.3,26.2,30.20,North,353,4.0,7.0,30,0.00,,CLR,0.00,VWS V14.01,2013-04-18 08:58:00,
2013-04-18 02:03:00,57.6,26.4,30.20,NE,35,3.0,4.0,30,0.00,,CLR,0.00,VWS V14.01,2013-04-18 09:03:00,
2013-04-18 02:08:00,57.6,26.4,30.20,WNW,301,0.0,5.0,30,0.00,,CLR,0.00,VWS V14.01,2013-04-18 09:08:00,
2013-04-18 02:13:00,57.1,26.8,30.20,NNW,347,2.0,5.0,31,0.00,,CLR,0.00,VWS V14.01,2013-04-18 09:13:00,
2013-04-18 02:18:00,56.6,27.1,30.20,NW,315,0.0,5.0,32,0.00,,CLR,0.00,VWS V14.01,2013-04-18 09:18:00,
2013-04-18 02:23:00,56.4,26.9,30.20,NNW,343,0.0,5.0,32,0.00,,CLR,0.00,VWS V14.01,2013-04-18 09:23:00,
2013-04-18 02:28:00,56.3,26.8,30.20,NNW,330,2.0,5.0,32,0.00,,CLR,0.00,VWS V14.01,2013-04-18 09:28:00,
2013-04-18 02:33:00,56.2,26.8,30.20,NNW,340,0.0,2.0,32,0.00,,CLR,0.00,VWS V14.01,2013-04-18 09:33:00,
2013-04-18 02:38:00,56.2,26.8,30.20,NW,312,0.0,2.0,32,0.00,,CLR,0.00,VWS V14.01,2013-04-18 09:38:00,
2013-04-18 02:43:00,56.3,26.8,30.20,NNW,335,1.0,2.0,32,0.00,,CLR,0.00,VWS V14.01,2013-04-18 09:43:00,
2013-04-18 02:48:00,56.5,26.2,30.19,North,355,1.0,3.0,31,0.00,,CLR,0.00,VWS V14.01,2013-04-18 09:48:00,
2013-04-18 02:53:00,56.5,27.0,30.20,North,8,0.0,3.0,32,0.00,,CLR,0.00,VWS V14.01,2013-04-18 09:53:00,
2013-04-18 02:58:00,56.3,26.8,30.19,North,351,0.0,3.0,32,0.00,,CLR,0.00,VWS V14.01,2013-04-18 09:58:00,
2013-04-18 03:03:00,56.3,26.1,30.19,North,6,1.0,2.0,31,0.00,,CLR,0.00,VWS V14.01,2013-04-18 10:03:00,
2013-04-18 03:08:00,56.4,26.2,30.20,NNE,13,0.0,2.0,31,0.00,,CLR,0.00,VWS V14.01,2013-04-18 10:08:00,
2013-04-18 03:13:00,56.6,25.5,30.20,North,356,0.0,2.0,30,0.00,,CLR,0.00,VWS V14.01,2013-04-18 10:13:00,
2013-04-18 03:18:00,56.8,25.7,30.20,NNE,19,1.0,3.0,30,0.00,,CLR,0.00,VWS V14.01,2013-04-18 10:18:00,
2013-04-18 03:23:00,56.8,25.7,30.20,NNW,340,1.0,3.0,30,0.00,,CLR,0.00,VWS V14.01,2013-04-18 10:23:00,
2013-04-18 03:28:00,56.7,25.6,30.20,NW,314,2.0,3.0,30,0.00,,CLR,0.00,VWS V14.01,2013-04-18 10:28:00,
2013-04-18 03:33:00,56.8,24.9,30.20,NNW,328,1.0,4.0,29,0.00,,CLR,0.00,VWS V14.01,2013-04-18 10:33:00,
2013-04-18 03:38:00,57.0,25.1,30.20,NNE,17,2.0,4.0,29,0.00,,CLR,0.00,VWS V14.01,2013-04-18 10:38:00,
2013-04-18 03:43:00,57.0,25.1,30.20,North,356,0.0,4.0,29,0.00,,CLR,0.00,VWS V14.01,2013-04-18 10:43:00,
2013-04-18 03:48:00,57.0,25.1,30.20,NNE,23,1.0,4.0,29,0.00,,CLR,0.00,VWS V14.01,2013-04-18 10:48:00,
2013-04-18 03:53:00,57.0,25.1,30.20,North,10,1.0,4.0,29,0.00,,CLR,0.00,VWS V14.01,2013-04-18 10:53:00,
2013-04-18 03:58:00,57.0,25.1,30.20,North,1,0.0,4.0,29,0.00,,CLR,0.00,VWS V14.01,2013-04-18 10:58:00,
2013-04-18 04:04:00,56.8,24.9,30.20,NW,317,0.0,2.0,29,0.00,,CLR,0.00,VWS V14.01,2013-04-18 11:04:00,
2013-04-18 04:09:00,56.8,25.7,30.20,North,8,1.0,2.0,30,0.00,,CLR,0.00,VWS V14.01,2013-04-18 11:09:00,
2013-04-18 04:14:00,56.8,24.9,30.20,North,359,0.0,3.0,29,0.00,,CLR,0.00,VWS V14.01,2013-04-18 11:14:00,
2013-04-18 04:19:00,56.9,25.0,30.20,NNE,27,2.0,4.0,29,0.00,,CLR,0.00,VWS V14.01,2013-04-18 11:19:00,
2013-04-18 04:24:00,57.0,25.1,30.20,NW,325,1.0,4.0,29,0.00,,CLR,0.00,VWS V14.01,2013-04-18 11:24:00,
2013-04-18 04:29:00,56.9,25.0,30.20,NNE,16,1.0,4.0,29,0.00,,CLR,0.00,VWS V14.01,2013-04-18 11:29:00,
2013-04-18 04:34:00,57.0,25.1,30.20,North,360,2.0,6.0,29,0.00,,CLR,0.00,VWS V14.01,2013-04-18 11:34:00,
2013-04-18 04:39:00,57.3,25.3,30.20,NNE,14,1.0,7.0,29,0.00,,CLR,0.00,VWS V14.01,2013-04-18 11:39:00,
2013-04-18 04:44:00,57.5,25.5,30.20,North,6,2.0,7.0,29,0.00,,CLR,0.00,VWS V14.01,2013-04-18 11:44:00,
2013-04-18 04:49:00,57.6,25.6,30.19,NNW,341,1.0,7.0,29,0.00,,CLR,0.00,VWS V14.01,2013-04-18 11:49:00,
2013-04-18 04:54:00,57.7,25.7,30.19,NNE,14,2.0,7.0,29,0.00,,CLR,0.00,VWS V14.01,2013-04-18 11:54:00,
2013-04-18 04:59:00,57.7,26.5,30.19,North,9,1.0,7.0,30,0.00,,CLR,0.00,VWS V14.01,2013-04-18 11:59:00,
2013-04-18 05:04:00,57.6,26.4,30.19,NW,321,1.0,2.0,30,0.00,,CLR,0.00,VWS V14.01,2013-04-18 12:04:00,
2013-04-18 05:09:00,57.3,26.2,30.19,WNW,303,0.0,4.0,30,0.00,,CLR,0.00,VWS V14.01,2013-04-18 12:09:00,
2013-04-18 05:14:00,57.1,26.8,30.19,NW,316,3.0,4.0,31,0.00,,CLR,0.00,VWS V14.01,2013-04-18 12:14:00,
2013-04-18 05:19:00,57.0,26.7,30.20,West,276,1.0,4.0,31,0.00,,CLR,0.00,VWS V14.01,2013-04-18 12:19:00,
2013-04-18 05:24:00,57.0,26.7,30.20,NW,323,0.0,4.0,31,0.00,,CLR,0.00,VWS V14.01,2013-04-18 12:24:00,
2013-04-18 05:29:00,57.0,26.7,30.20,NNE,13,1.0,6.0,31,0.00,,CLR,0.00,VWS V14.01,2013-04-18 12:29:00,
2013-04-18 05:34:00,57.3,27.0,30.20,WNW,295,2.0,4.0,31,0.00,,CLR,0.00,VWS V14.01,2013-04-18 12:34:00,
2013-04-18 05:39:00,57.5,27.1,30.20,NNE,32,4.0,5.0,31,0.00,,CLR,0.00,VWS V14.01,2013-04-18 12:39:00,
2013-04-18 05:44:00,57.7,27.3,30.20,NW,304,5.0,5.0,31,0.00,,CLR,0.00,VWS V14.01,2013-04-18 12:44:00,
2013-04-18 05:49:00,57.9,26.7,30.20,North,351,1.0,7.0,30,0.00,,CLR,0.00,VWS V14.01,2013-04-18 12:49:00,
2013-04-18 05:54:00,58.1,26.0,30.20,WNW,291,2.0,8.0,29,0.00,,CLR,0.00,VWS V14.01,2013-04-18 12:54:00,
2013-04-18 05:59:00,58.2,26.1,30.20,NNE,14,3.0,8.0,29,0.00,,CLR,0.00,VWS V14.01,2013-04-18 12:59:00,
2013-04-18 06:04:00,58.3,26.2,30.20,NNE,23,1.0,3.0,29,0.00,,CLR,0.00,VWS V14.01,2013-04-18 13:04:00,
2013-04-18 06:09:00,58.1,26.9,30.20,NNW,342,4.0,5.0,30,0.00,,CLR,0.00,VWS V14.01,2013-04-18 13:09:00,
2013-04-18 06:14:00,58.1,26.9,30.20,WNW,302,1.0,5.0,30,0.00,,CLR,0.00,VWS V14.01,2013-04-18 13:14:00,
2013-04-18 06:19:00,58.1,26.9,30.21,NNW,328,0.0,5.0,30,0.00,,CLR,0.00,VWS V14.01,2013-04-18 13:19:00,
2013-04-18 06:24:00,57.9,27.5,30.21,ENE,68,2.0,5.0,31,0.00,,CLR,0.00,VWS V14.01,2013-04-18 13:24:00,
2013-04-18 06:29:00,58.0,27.6,30.21,North,5,1.0,5.0,31,0.00,,CLR,0.00,VWS V14.01,2013-04-18 13:29:00,
2013-04-18 06:34:00,57.8,28.2,30.21,NE,36,2.0,4.0,32,0.00,,CLR,0.00,VWS V14.01,2013-04-18 13:34:00,
2013-04-18 06:39:00,57.8,28.2,30.21,North,353,2.0,4.0,32,0.00,,CLR,0.00,VWS V14.01,2013-04-18 13:39:00,
2013-04-18 06:44:00,57.8,28.9,30.21,NNE,19,2.0,4.0,33,0.00,,CLR,0.00,VWS V14.01,2013-04-18 13:44:00,
2013-04-18 06:49:00,57.6,28.7,30.22,North,6,0.0,4.0,33,0.00,,CLR,0.00,VWS V14.01,2013-04-18 13:49:00,
2013-04-18 06:54:00,57.5,28.6,30.22,NNW,330,0.0,4.0,33,0.00,,CLR,0.00,VWS V14.01,2013-04-18 13:54:00,
2013-04-18 06:59:00,57.3,29.2,30.22,NW,323,0.0,4.0,34,0.00,,CLR,0.00,VWS V14.01,2013-04-18 13:59:00,
2013-04-18 07:04:00,57.2,29.1,30.22,West,276,0.0,1.0,34,0.00,,CLR,0.00,VWS V14.01,2013-04-18 14:04:00,
2013-04-18 07:09:00,57.5,29.4,30.22,WNW,302,0.0,2.0,34,0.00,,CLR,0.00,VWS V14.01,2013-04-18 14:09:00,
2013-04-18 07:14:00,57.7,30.3,30.23,NE,40,1.0,2.0,35,0.00,,CLR,0.00,VWS V14.01,2013-04-18 14:14:00,
2013-04-18 07:19:00,58.3,30.1,30.23,North,4,1.0,4.0,34,0.00,,CLR,0.00,VWS V14.01,2013-04-18 14:19:00,
2013-04-18 07:24:00,58.9,31.3,30.23,ENE,61,0.0,4.0,35,0.00,,CLR,0.00,VWS V14.01,2013-04-18 14:24:00,
2013-04-18 07:29:00,59.6,31.2,30.23,NNE,26,2.0,4.0,34,0.00,,CLR,0.00,VWS V14.01,2013-04-18 14:29:00,
2013-04-18 07:34:00,60.6,31.4,30.23,NNE,33,2.0,5.0,33,0.00,,CLR,0.00,VWS V14.01,2013-04-18 14:34:00,
2013-04-18 07:39:00,61.2,31.9,30.24,North,8,1.0,7.0,33,0.00,,CLR,0.00,VWS V14.01,2013-04-18 14:39:00,
2013-04-18 07:44:00,61.6,32.2,30.24,NNW,331,1.0,7.0,33,0.00,,CLR,0.00,VWS V14.01,2013-04-18 14:44:00,
2013-04-18 07:49:00,62.0,31.8,30.24,North,7,1.0,7.0,32,0.00,,CLR,0.00,VWS V14.01,2013-04-18 14:49:00,
2013-04-18 07:54:00,62.3,31.3,30.24,North,354,1.0,7.0,31,0.00,,CLR,0.00,VWS V14.01,2013-04-18 14:54:00,
2013-04-18 07:59:00,62.6,31.6,30.24,NNE,27,4.0,9.0,31,0.00,,CLR,0.00,VWS V14.01,2013-04-18 14:59:00,
2013-04-18 08:04:00,63.0,32.7,30.24,NNW,346,1.0,7.0,32,0.00,,CLR,0.00,VWS V14.01,2013-04-18 15:04:00,
2013-04-18 08:09:00,63.3,31.4,30.24,NNW,328,1.0,8.0,30,0.00,,CLR,0.00,VWS V14.01,2013-04-18 15:09:00,
2013-04-18 08:14:00,63.6,32.4,30.24,NE,42,3.0,9.0,31,0.00,,CLR,0.00,VWS V14.01,2013-04-18 15:14:00,
2013-04-18 08:19:00,63.9,32.7,30.24,NW,304,2.0,9.0,31,0.00,,CLR,0.00,VWS V14.01,2013-04-18 15:19:00,
2013-04-18 08:24:00,64.1,31.2,30.24,North,9,4.0,12.0,29,0.00,,CLR,0.00,VWS V14.01,2013-04-18 15:24:00,
2013-04-18 08:29:00,64.4,32.3,30.24,NNW,335,2.0,12.0,30,0.00,,CLR,0.00,VWS V14.01,2013-04-18 15:29:00,
2013-04-18 08:34:00,64.5,31.6,30.24,NE,45,2.0,15.0,29,0.00,,CLR,0.00,VWS V14.01,2013-04-18 15:34:00,
2013-04-18 08:39:00,64.6,31.6,30.24,NNE,22,8.0,15.0,29,0.00,,CLR,0.00,VWS V14.01,2013-04-18 15:39:00,
2013-04-18 08:44:00,64.7,31.7,30.24,NW,314,6.0,15.0,29,0.00,,CLR,0.00,VWS V14.01,2013-04-18 15:44:00,
2013-04-18 08:49:00,65.1,32.1,30.24,NE,48,6.0,15.0,29,0.00,,CLR,0.00,VWS V14.01,2013-04-18 15:49:00,
2013-04-18 08:55:00,65.2,31.3,30.24,NNE,25,7.0,15.0,28,0.00,,CLR,0.00,VWS V14.01,2013-04-18 15:55:00,
2013-04-18 09:00:00,65.3,31.4,30.24,NNE,30,4.0,15.0,28,0.00,,CLR,0.00,VWS V14.01,2013-04-18 16:00:00,
2013-04-18 09:05:00,65.5,32.4,30.24,NW,321,4.0,10.0,29,0.00,,CLR,0.00,VWS V14.01,2013-04-18 16:05:00,
2013-04-18 09:10:00,65.8,32.7,30.24,NNW,347,4.0,11.0,29,0.00,,CLR,0.00,VWS V14.01,2013-04-18 16:10:00,
2013-04-18 09:15:00,65.8,31.8,30.24,North,358,4.0,11.0,28,0.00,,CLR,0.00,VWS V14.01,2013-04-18 16:15:00,
2013-04-18 09:20:00,66.0,32.0,30.24,NNE,17,2.0,11.0,28,0.00,,CLR,0.00,VWS V14.01,2013-04-18 16:20:00,
2013-04-18 09:25:00,66.1,32.1,30.24,NE,42,9.0,13.0,28,0.00,,CLR,0.00,VWS V14.01,2013-04-18 16:25:00,
2013-04-18 09:30:00,66.3,32.2,30.24,NNE,26,4.0,13.0,28,0.00,,CLR,0.00,VWS V14.01,2013-04-18 16:30:00,
2013-04-18 09:35:00,66.3,32.2,30.24,NNE,33,6.0,14.0,28,0.00,,CLR,0.00,VWS V14.01,2013-04-18 16:35:00,
2013-04-18 09:40:00,66.4,31.4,30.24,NNE,27,1.0,14.0,27,0.00,,CLR,0.00,VWS V14.01,2013-04-18 16:40:00,
2013-04-18 09:45:00,66.4,32.3,30.24,NNE,27,2.0,14.0,28,0.00,,CLR,0.00,VWS V14.01,2013-04-18 16:45:00,
2013-04-18 09:50:00,66.9,33.6,30.24,WNW,291,1.0,14.0,29,0.00,,CLR,0.00,VWS V14.01,2013-04-18 16:50:00,
2013-04-18 09:55:00,67.3,31.3,30.24,NNW,340,6.0,14.0,26,0.00,,CLR,0.00,VWS V14.01,2013-04-18 16:55:00,
2013-04-18 10:00:00,67.4,31.4,30.25,NE,36,1.0,14.0,26,0.00,,CLR,0.00,VWS V14.01,2013-04-18 17:00:00,
2013-04-18 10:05:00,68.0,32.8,30.24,ENE,70,6.0,11.0,27,0.00,,CLR,0.00,VWS V14.01,2013-04-18 17:05:00,
2013-04-18 10:10:00,67.9,34.5,30.25,NE,38,3.0,12.0,29,0.00,,CLR,0.00,VWS V14.01,2013-04-18 17:10:00,
2013-04-18 10:15:00,68.2,33.0,30.25,NE,39,6.0,12.0,27,0.00,,CLR,0.00,VWS V14.01,2013-04-18 17:15:00,
2013-04-18 10:20:00,68.3,33.1,30.25,North,11,1.0,12.0,27,0.00,,CLR,0.00,VWS V14.01,2013-04-18 17:20:00,
2013-04-18 10:25:00,68.8,33.5,30.25,NE,46,6.0,12.0,27,0.00,,CLR,0.00,VWS V14.01,2013-04-18 17:25:00,
2013-04-18 10:30:00,68.9,33.6,30.25,NNE,20,6.0,12.0,27,0.00,,CLR,0.00,VWS V14.01,2013-04-18 17:30:00,
2013-04-18 10:35:00,69.3,33.0,30.25,NNE,27,2.0,6.0,26,0.00,,CLR,0.00,VWS V14.01,2013-04-18 17:35:00,
2013-04-18 10:40:00,69.5,35.9,30.25,NE,38,1.0,10.0,29,0.00,,CLR,0.00,VWS V14.01,2013-04-18 17:40:00,
2013-04-18 10:45:00,69.8,34.3,30.25,NNE,15,3.0,10.0,27,0.00,,CLR,0.00,VWS V14.01,2013-04-18 17:45:00,
2013-04-18 10:50:00,69.9,35.3,30.25,NE,43,5.0,10.0,28,0.00,,CLR,0.00,VWS V14.01,2013-04-18 17:50:00,
2013-04-18 10:55:00,69.7,33.3,30.25,NE,38,0.0,10.0,26,0.00,,CLR,0.00,VWS V14.01,2013-04-18 17:55:00,
2013-04-18 11:00:00,69.9,34.4,30.25,NE,49,4.0,10.0,27,0.00,,CLR,0.00,VWS V14.01,2013-04-18 18:00:00,
2013-04-18 11:05:00,70.1,33.7,30.25,NE,52,5.0,12.0,26,0.00,,CLR,0.00,VWS V14.01,2013-04-18 18:05:00,
2013-04-18 11:10:00,70.3,33.8,30.25,NE,41,5.0,12.0,26,0.00,,CLR,0.00,VWS V14.01,2013-04-18 18:10:00,
2013-04-18 11:15:00,70.6,33.1,30.25,North,360,2.0,12.0,25,0.00,,CLR,0.00,VWS V14.01,2013-04-18 18:15:00,
2013-04-18 11:20:00,70.6,33.1,30.25,NE,51,5.0,12.0,25,0.00,,CLR,0.00,VWS V14.01,2013-04-18 18:20:00,
2013-04-18 11:25:00,70.7,32.2,30.25,NNE,29,1.0,14.0,24,0.00,,CLR,0.00,VWS V14.01,2013-04-18 18:25:00,
2013-04-18 11:30:00,71.0,32.4,30.25,NE,39,3.0,14.0,24,0.00,,CLR,0.00,VWS V14.01,2013-04-18 18:30:00,
2013-04-18 11:35:00,71.5,33.9,30.25,NE,34,2.0,9.0,25,0.00,,CLR,0.00,VWS V14.01,2013-04-18 18:35:00,
2013-04-18 11:40:00,71.5,35.8,30.24,NNE,33,1.0,13.0,27,0.00,,CLR,0.00,VWS V14.01,2013-04-18 18:40:00,
2013-04-18 11:45:00,71.6,32.9,30.24,NNE,23,4.0,15.0,24,0.00,,CLR,0.00,VWS V14.01,2013-04-18 18:45:00,
2013-04-18 11:50:00,71.5,32.8,30.24,NE,42,5.0,15.0,24,0.00,,CLR,0.00,VWS V14.01,2013-04-18 18:50:00,
2013-04-18 11:55:00,71.6,31.9,30.24,NE,49,2.0,15.0,23,0.00,,CLR,0.00,VWS V14.01,2013-04-18 18:55:00,
2013-04-18 12:00:00,72.4,31.4,30.24,ESE,108,3.0,15.0,22,0.00,,CLR,0.00,VWS V14.01,2013-04-18 19:00:00,
2013-04-18 12:05:00,72.6,31.6,30.24,NE,41,5.0,11.0,22,0.00,,CLR,0.00,VWS V14.01,2013-04-18 19:05:00,
2013-04-18 12:10:00,72.5,31.5,30.24,NNE,25,12.0,12.0,22,0.00,,CLR,0.00,VWS V14.01,2013-04-18 19:10:00,
2013-04-18 12:15:00,72.4,31.4,30.24,ENE,58,9.0,12.0,22,0.00,,CLR,0.00,VWS V14.01,2013-04-18 19:15:00,
2013-04-18 12:20:00,72.5,31.5,30.24,NNE,24,5.0,15.0,22,0.00,,CLR,0.00,VWS V14.01,2013-04-18 19:20:00,
2013-04-18 12:25:00,72.9,33.0,30.24,NE,41,5.0,15.0,23,0.00,,CLR,0.00,VWS V14.01,2013-04-18 19:25:00,
2013-04-18 12:30:00,73.1,30.9,30.23,North,351,3.0,15.0,21,0.00,,CLR,0.00,VWS V14.01,2013-04-18 19:30:00,
2013-04-18 12:35:00,72.9,30.7,30.24,East,88,11.0,14.0,21,0.00,,CLR,0.00,VWS V14.01,2013-04-18 19:35:00,
2013-04-18 12:40:00,73.1,32.0,30.23,East,82,8.0,14.0,22,0.00,,CLR,0.00,VWS V14.01,2013-04-18 19:40:00,
2013-04-18 12:45:00,73.6,30.1,30.23,NE,49,4.0,14.0,20,0.00,,CLR,0.00,VWS V14.01,2013-04-18 19:45:00,
2013-04-18 12:50:00,74.2,30.6,30.23,ENE,60,6.0,14.0,20,0.00,,CLR,0.00,VWS V14.01,2013-04-18 19:50:00,
2013-04-18 12:55:00,74.5,30.8,30.23,NNE,31,8.0,14.0,20,0.00,,CLR,0.00,VWS V14.01,2013-04-18 19:55:00,
2013-04-18 13:00:00,74.1,29.2,30.23,NNE,22,8.0,14.0,19,0.00,,CLR,0.00,VWS V14.01,2013-04-18 20:00:00,
2013-04-18 13:05:00,74.2,30.6,30.23,ENE,78,5.0,13.0,20,0.00,,CLR,0.00,VWS V14.01,2013-04-18 20:05:00,
2013-04-18 13:10:00,74.6,29.7,30.22,NE,53,4.0,13.0,19,0.00,,CLR,0.00,VWS V14.01,2013-04-18 20:10:00,
2013-04-18 13:15:00,74.4,28.2,30.22,North,353,5.0,15.0,18,0.00,,CLR,0.00,VWS V14.01,2013-04-18 20:15:00,
2013-04-18 13:20:00,74.4,32.0,30.22,NNE,21,5.0,15.0,21,0.00,,CLR,0.00,VWS V14.01,2013-04-18 20:20:00,
2013-04-18 13:25:00,74.8,29.8,30.22,NE,49,4.0,15.0,19,0.00,,CLR,0.00,VWS V14.01,2013-04-18 20:25:00,
2013-04-18 13:30:00,74.6,29.7,30.22,NNW,338,5.0,15.0,19,0.00,,CLR,0.00,VWS V14.01,2013-04-18 20:30:00,
2013-04-18 13:35:00,74.8,28.5,30.22,NE,44,4.0,11.0,18,0.00,,CLR,0.00,VWS V14.01,2013-04-18 20:35:00,
2013-04-18 13:40:00,74.9,31.2,30.22,NNW,334,3.0,12.0,20,0.00,,CLR,0.00,VWS V14.01,2013-04-18 20:40:00,
2013-04-18 13:45:00,75.0,31.2,30.21,East,87,4.0,12.0,20,0.00,,CLR,0.00,VWS V14.01,2013-04-18 20:45:00,
2013-04-18 13:50:00,75.1,31.3,30.22,NNE,28,2.0,12.0,20,0.00,,CLR,0.00,VWS V14.01,2013-04-18 20:50:00,
2013-04-18 13:55:00,75.3,30.2,30.21,NNE,25,5.0,12.0,19,0.00,,CLR,0.00,VWS V14.01,2013-04-18 20:55:00,
2013-04-18 14:00:00,75.4,32.8,30.21,North,351,4.0,12.0,21,0.00,,CLR,0.00,VWS V14.01,2013-04-18 21:00:00,
2013-04-18 14:05:00,75.4,31.6,30.21,ENE,58,5.0,14.0,20,0.00,,CLR,0.00,VWS V14.01,2013-04-18 21:05:00,
2013-04-18 14:10:00,75.8,33.1,30.21,NNE,33,2.0,14.0,21,0.00,,CLR,0.00,VWS V14.01,2013-04-18 21:10:00,
2013-04-18 14:16:00,75.6,33.0,30.21,NNW,340,2.0,15.0,21,0.00,,CLR,0.00,VWS V14.01,2013-04-18 21:16:00,
2013-04-18 14:21:00,75.9,32.0,30.21,NNE,24,3.0,16.0,20,0.00,,CLR,0.00,VWS V14.01,2013-04-18 21:21:00,
2013-04-18 14:26:00,76.2,32.2,30.20,NE,34,5.0,16.0,20,0.00,,CLR,0.00,VWS V14.01,2013-04-18 21:26:00,
2013-04-18 14:31:00,76.0,30.8,30.21,NNW,341,5.0,17.0,19,0.00,,CLR,0.00,VWS V14.01,2013-04-18 21:31:00,
2013-04-18 14:36:00,76.5,32.5,30.20,NW,305,3.0,6.0,20,0.00,,CLR,0.00,VWS V14.01,2013-04-18 21:36:00,
2013-04-18 14:41:00,76.7,31.4,30.20,NW,323,4.0,11.0,19,0.00,,CLR,0.00,VWS V14.01,2013-04-18 21:41:00,
2013-04-18 14:46:00,76.6,31.3,30.20,NNW,347,7.0,11.0,19,0.00,,CLR,0.00,VWS V14.01,2013-04-18 21:46:00,
2013-04-18 14:51:00,76.4,31.1,30.20,NE,35,7.0,13.0,19,0.00,,CLR,0.00,VWS V14.01,2013-04-18 21:51:00,
2013-04-18 14:56:00,76.5,31.2,30.20,North,349,4.0,13.0,19,0.00,,CLR,0.00,VWS V14.01,2013-04-18 21:56:00,
2013-04-18 15:01:00,76.6,31.3,30.19,NNE,12,6.0,13.0,19,0.00,,CLR,0.00,VWS V14.01,2013-04-18 22:01:00,
2013-04-18 15:06:00,76.7,31.4,30.19,NNE,30,4.0,9.0,19,0.00,,CLR,0.00,VWS V14.01,2013-04-18 22:06:00,
2013-04-18 15:11:00,77.2,33.1,30.19,NNE,23,3.0,9.0,20,0.00,,CLR,0.00,VWS V14.01,2013-04-18 22:11:00,
2013-04-18 15:16:00,77.0,31.6,30.19,NE,51,9.0,13.0,19,0.00,,CLR,0.00,VWS V14.01,2013-04-18 22:16:00,
2013-04-18 15:21:00,77.2,33.1,30.19,NE,36,9.0,13.0,20,0.00,,CLR,0.00,VWS V14.01,2013-04-18 22:21:00,
2013-04-18 15:26:00,77.0,31.6,30.19,North,9,7.0,13.0,19,0.00,,CLR,0.00,VWS V14.01,2013-04-18 22:26:00,
2013-04-18 15:31:00,77.0,32.9,30.18,WNW,285,5.0,14.0,20,0.00,,CLR,0.00,VWS V14.01,2013-04-18 22:31:00,
2013-04-18 15:36:00,76.8,32.7,30.18,NNE,21,5.0,13.0,20,0.00,,CLR,0.00,VWS V14.01,2013-04-18 22:36:00,
2013-04-18 15:41:00,77.1,31.7,30.18,North,351,8.0,13.0,19,0.00,,CLR,0.00,VWS V14.01,2013-04-18 22:41:00,
2013-04-18 15:46:00,77.2,33.1,30.18,NE,43,3.0,14.0,20,0.00,,CLR,0.00,VWS V14.01,2013-04-18 22:46:00,
2013-04-18 15:51:00,77.2,31.8,30.18,NE,37,7.0,14.0,19,0.00,,CLR,0.00,VWS V14.01,2013-04-18 22:51:00,
2013-04-18 15:56:00,77.2,31.8,30.17,NNE,23,4.0,14.0,19,0.00,,CLR,0.00,VWS V14.01,2013-04-18 22:56:00,
2013-04-18 16:01:00,77.6,32.1,30.17,NNE,19,6.0,14.0,19,0.00,,CLR,0.00,VWS V14.01,2013-04-18 23:01:00,
2013-04-18 16:06:00,77.7,32.2,30.17,NE,40,4.0,9.0,19,0.00,,CLR,0.00,VWS V14.01,2013-04-18 23:06:00,
2013-04-18 16:11:00,77.9,32.4,30.17,NNE,23,4.0,9.0,19,0.00,,CLR,0.00,VWS V14.01,2013-04-18 23:11:00,
2013-04-18 16:16:00,77.7,32.2,30.17,NNE,19,1.0,11.0,19,0.00,,CLR,0.00,VWS V14.01,2013-04-18 23:16:00,
2013-04-18 16:21:00,77.8,32.3,30.17,ENE,61,7.0,11.0,19,0.00,,CLR,0.00,VWS V14.01,2013-04-18 23:21:00,
2013-04-18 16:26:00,77.5,32.0,30.17,NE,39,5.0,11.0,19,0.00,,CLR,0.00,VWS V14.01,2013-04-18 23:26:00,
2013-04-18 16:31:00,77.8,32.3,30.16,NNE,15,2.0,11.0,19,0.00,,CLR,0.00,VWS V14.01,2013-04-18 23:31:00,
2013-04-18 16:36:00,77.9,32.4,30.16,NE,56,3.0,7.0,19,0.00,,CLR,0.00,VWS V14.01,2013-04-18 23:36:00,
2013-04-18 16:41:00,78.0,32.4,30.16,NNE,32,4.0,8.0,19,0.00,,CLR,0.00,VWS V14.01,2013-04-18 23:41:00,
2013-04-18 16:46:00,77.9,32.4,30.16,NE,46,5.0,8.0,19,0.00,,CLR,0.00,VWS V14.01,2013-04-18 23:46:00,
2013-04-18 16:51:00,77.9,32.4,30.16,NE,49,2.0,10.0,19,0.00,,CLR,0.00,VWS V14.01,2013-04-18 23:51:00,
2013-04-18 16:56:00,78.0,32.4,30.16,NNE,33,3.0,10.0,19,0.00,,CLR,0.00,VWS V14.01,2013-04-18 23:56:00,
2013-04-18 17:01:00,78.0,33.7,30.16,NNE,15,4.0,10.0,20,0.00,,CLR,0.00,VWS V14.01,2013-04-19 00:01:00,
2013-04-18 17:06:00,78.1,32.5,30.16,NE,49,3.0,6.0,19,0.00,,CLR,0.00,VWS V14.01,2013-04-19 00:06:00,
2013-04-18 17:11:00,78.1,33.8,30.16,NNW,341,1.0,6.0,20,0.00,,CLR,0.00,VWS V14.01,2013-04-19 00:11:00,
2013-04-18 17:16:00,78.3,32.7,30.16,NNE,19,4.0,6.0,19,0.00,,CLR,0.00,VWS V14.01,2013-04-19 00:16:00,
2013-04-18 17:21:00,77.9,33.6,30.16,West,274,0.0,7.0,20,0.00,,CLR,0.00,VWS V14.01,2013-04-19 00:21:00,
2013-04-18 17:26:00,78.0,33.7,30.16,North,1,3.0,7.0,20,0.00,,CLR,0.00,VWS V14.01,2013-04-19 00:26:00,
2013-04-18 17:31:00,78.1,35.0,30.15,NE,46,0.0,8.0,21,0.00,,CLR,0.00,VWS V14.01,2013-04-19 00:31:00,
2013-04-18 17:36:00,78.4,34.0,30.15,NNW,342,2.0,4.0,20,0.00,,CLR,0.00,VWS V14.01,2013-04-19 00:36:00,
2013-04-18 17:41:00,78.4,34.0,30.15,NNE,18,6.0,7.0,20,0.00,,CLR,0.00,VWS V14.01,2013-04-19 00:41:00,
2013-04-18 17:46:00,78.1,33.8,30.15,NE,56,0.0,7.0,20,0.00,,CLR,0.00,VWS V14.01,2013-04-19 00:46:00,
2013-04-18 17:51:00,78.3,35.2,30.15,North,9,0.0,7.0,21,0.00,,CLR,0.00,VWS V14.01,2013-04-19 00:51:00,
2013-04-18 17:56:00,78.3,34.0,30.15,North,8,1.0,7.0,20,0.00,,CLR,0.00,VWS V14.01,2013-04-19 00:56:00,
2013-04-18 18:01:00,78.1,33.8,30.15,North,1,2.0,7.0,20,0.00,,CLR,0.00,VWS V14.01,2013-04-19 01:01:00,
2013-04-18 18:06:00,77.8,33.6,30.15,NE,42,7.0,7.0,20,0.00,,CLR,0.00,VWS V14.01,2013-04-19 01:06:00,
2013-04-18 18:11:00,77.5,34.5,30.15,NNE,28,2.0,7.0,21,0.00,,CLR,0.00,VWS V14.01,2013-04-19 01:11:00,
2013-04-18 18:16:00,77.4,34.5,30.15,NNE,28,3.0,7.0,21,0.00,,CLR,0.00,VWS V14.01,2013-04-19 01:16:00,
2013-04-18 18:21:00,77.3,34.4,30.15,NNE,26,1.0,7.0,21,0.00,,CLR,0.00,VWS V14.01,2013-04-19 01:21:00,
2013-04-18 18:26:00,77.2,34.3,30.15,NE,49,2.0,7.0,21,0.00,,CLR,0.00,VWS V14.01,2013-04-19 01:26:00,
2013-04-18 18:31:00,77.3,35.5,30.15,NE,41,2.0,7.0,22,0.00,,CLR,0.00,VWS V14.01,2013-04-19 01:31:00,
2013-04-18 18:36:00,77.0,34.1,30.15,North,8,1.0,5.0,21,0.00,,CLR,0.00,VWS V14.01,2013-04-19 01:36:00,
2013-04-18 18:41:00,77.0,35.3,30.14,NE,34,2.0,5.0,22,0.00,,CLR,0.00,VWS V14.01,2013-04-19 01:41:00,
2013-04-18 18:46:00,76.9,35.2,30.15,NNE,33,0.0,5.0,22,0.00,,CLR,0.00,VWS V14.01,2013-04-19 01:46:00,
2013-04-18 18:51:00,76.8,36.2,30.15,ENE,62,0.0,5.0,23,0.00,,CLR,0.00,VWS V14.01,2013-04-19 01:51:00,
2013-04-18 18:56:00,77.0,36.4,30.15,ENE,63,0.0,5.0,23,0.00,,CLR,0.00,VWS V14.01,2013-04-19 01:56:00,
2013-04-18 19:01:00,77.3,35.5,30.15,East,101,0.0,5.0,22,0.00,,CLR,0.00,VWS V14.01,2013-04-19 02:01:00,
2013-04-18 19:06:00,77.0,35.3,30.15,ESE,105,0.0,1.0,22,0.00,,CLR,0.00,VWS V14.01,2013-04-19 02:06:00,
2013-04-18 19:11:00,76.2,42.5,30.15,East,84,0.0,5.0,30,0.00,,CLR,0.00,VWS V14.01,2013-04-19 02:11:00,
2013-04-18 19:16:00,75.6,42.0,30.15,SSE,163,3.0,5.0,30,0.00,,CLR,0.00,VWS V14.01,2013-04-19 02:16:00,
2013-04-18 19:21:00,75.0,42.3,30.15,South,183,1.0,5.0,31,0.00,,CLR,0.00,VWS V14.01,2013-04-19 02:21:00,
2013-04-18 19:26:00,74.4,42.7,30.15,South,187,2.0,5.0,32,0.00,,CLR,0.00,VWS V14.01,2013-04-19 02:26:00,
2013-04-18 19:31:00,73.5,42.7,30.15,SSW,198,2.0,5.0,33,0.00,,CLR,0.00,VWS V14.01,2013-04-19 02:31:00,
2013-04-18 19:36:00,72.8,43.6,30.15,SW,224,2.0,4.0,35,0.00,,CLR,0.00,VWS V14.01,2013-04-19 02:36:00,
2013-04-18 19:41:00,72.0,43.6,30.15,SW,215,0.0,4.0,36,0.00,,CLR,0.00,VWS V14.01,2013-04-19 02:41:00,
2013-04-18 19:46:00,71.3,43.0,30.15,SSW,207,2.0,4.0,36,0.00,,CLR,0.00,VWS V14.01,2013-04-19 02:46:00,
2013-04-18 19:51:00,70.7,43.9,30.15,SSW,201,0.0,4.0,38,0.00,,CLR,0.00,VWS V14.01,2013-04-19 02:51:00,
2013-04-18 19:56:00,70.2,44.1,30.15,SSW,205,0.0,4.0,39,0.00,,CLR,0.00,VWS V14.01,2013-04-19 02:56:00,
2013-04-18 20:01:00,69.8,43.8,30.15,SSW,194,1.0,4.0,39,0.00,,CLR,0.00,VWS V14.01,2013-04-19 03:01:00,
2013-04-18 20:06:00,69.3,43.3,30.15,SSW,207,0.0,2.0,39,0.00,,CLR,0.00,VWS V14.01,2013-04-19 03:06:00,
2013-04-18 20:11:00,68.9,43.6,30.15,SW,225,0.0,2.0,40,0.00,,CLR,0.00,VWS V14.01,2013-04-19 03:11:00,
2013-04-18 20:16:00,68.4,43.2,30.15,SSW,198,0.0,2.0,40,0.00,,CLR,0.00,VWS V14.01,2013-04-19 03:16:00,
2013-04-18 20:21:00,68.1,42.2,30.15,SSW,198,1.0,2.0,39,0.00,,CLR,0.00,VWS V14.01,2013-04-19 03:21:00,
2013-04-18 20:26:00,68.0,42.1,30.15,South,176,0.0,2.0,39,0.00,,CLR,0.00,VWS V14.01,2013-04-19 03:26:00,
2013-04-18 20:31:00,67.7,41.9,30.16,SSW,197,0.0,2.0,39,0.00,,CLR,0.00,VWS V14.01,2013-04-19 03:31:00,
2013-04-18 20:36:00,67.3,41.5,30.16,WNW,285,0.0,2.0,39,0.00,,CLR,0.00,VWS V14.01,2013-04-19 03:36:00,
2013-04-18 20:41:00,67.0,41.9,30.15,SW,222,0.0,2.0,40,0.00,,CLR,0.00,VWS V14.01,2013-04-19 03:41:00,
2013-04-18 20:46:00,66.8,41.7,30.16,West,275,2.0,2.0,40,0.00,,CLR,0.00,VWS V14.01,2013-04-19 03:46:00,
2013-04-18 20:51:00,67.1,41.3,30.16,WNW,291,0.0,6.0,39,0.00,,CLR,0.00,VWS V14.01,2013-04-19 03:51:00,
2013-04-18 20:56:00,67.0,41.9,30.16,SSW,212,1.0,6.0,40,0.00,,CLR,0.00,VWS V14.01,2013-04-19 03:56:00,
2013-04-18 21:01:00,66.7,41.6,30.16,NNW,333,0.0,6.0,40,0.00,,CLR,0.00,VWS V14.01,2013-04-19 04:01:00,
2013-04-18 21:06:00,66.5,40.8,30.17,SE,125,0.0,1.0,39,0.00,,CLR,0.00,VWS V14.01,2013-04-19 04:06:00,
2013-04-18 21:11:00,66.4,40.7,30.17,South,172,0.0,3.0,39,0.00,,CLR,0.00,VWS V14.01,2013-04-19 04:11:00,
2013-04-18 21:16:00,66.0,41.0,30.17,West,281,0.0,3.0,40,0.00,,CLR,0.00,VWS V14.01,2013-04-19 04:16:00,
2013-04-18 21:21:00,65.4,39.8,30.17,NW,319,0.0,3.0,39,0.00,,CLR,0.00,VWS V14.01,2013-04-19 04:21:00,
2013-04-18 21:26:00,65.1,42.1,30.17,NNE,15,0.0,3.0,43,0.00,,CLR,0.00,VWS V14.01,2013-04-19 04:26:00,
2013-04-18 21:31:00,64.3,42.5,30.18,NNE,15,0.0,0.0,45,0.00,,CLR,0.00,VWS V14.01,2013-04-19 04:31:00,
2013-04-18 21:36:00,63.5,42.4,30.18,NNE,15,0.0,0.0,46,0.00,,CLR,0.00,VWS V14.01,2013-04-19 04:36:00,
2013-04-18 21:41:00,62.8,42.8,30.18,NNE,16,0.0,0.0,48,0.00,,CLR,0.00,VWS V14.01,2013-04-19 04:41:00,
2013-04-18 21:46:00,62.0,42.6,30.18,NNE,16,0.0,0.0,49,0.00,,CLR,0.00,VWS V14.01,2013-04-19 04:46:00,
2013-04-18 21:51:00,61.7,42.4,30.18,NNE,15,0.0,1.0,49,0.00,,CLR,0.00,VWS V14.01,2013-04-19 04:51:00,
2013-04-18 21:56:00,61.4,42.1,30.18,NNE,15,0.0,1.0,49,0.00,,CLR,0.00,VWS V14.01,2013-04-19 04:56:00,
2013-04-18 22:01:00,61.1,42.3,30.18,NNE,16,0.0,0.0,50,0.00,,CLR,0.00,VWS V14.01,2013-04-19 05:01:00,
2013-04-18 22:06:00,60.8,42.1,30.18,NNE,16,0.0,0.0,50,0.00,,CLR,0.00,VWS V14.01,2013-04-19 05:06:00,
2013-04-18 22:11:00,60.7,42.0,30.18,NW,323,0.0,1.0,50,0.00,,CLR,0.00,VWS V14.01,2013-04-19 05:11:00,
2013-04-18 22:16:00,60.9,41.6,30.19,WNW,285,0.0,1.0,49,0.00,,CLR,0.00,VWS V14.01,2013-04-19 05:16:00,
2013-04-18 22:21:00,61.1,41.3,30.18,WNW,285,0.0,1.0,48,0.00,,CLR,0.00,VWS V14.01,2013-04-19 05:21:00,
2013-04-18 22:26:00,61.1,40.7,30.18,WNW,285,0.0,1.0,47,0.00,,CLR,0.00,VWS V14.01,2013-04-19 05:26:00,
2013-04-18 22:31:00,61.0,40.1,30.18,WNW,285,0.0,0.0,46,0.00,,CLR,0.00,VWS V14.01,2013-04-19 05:31:00,
2013-04-18 22:36:00,60.9,40.5,30.18,WNW,285,0.0,0.0,47,0.00,,CLR,0.00,VWS V14.01,2013-04-19 05:36:00,
2013-04-18 22:41:00,60.8,41.5,30.18,WNW,285,0.0,0.0,49,0.00,,CLR,0.00,VWS V14.01,2013-04-19 05:41:00,
2013-04-18 22:46:00,60.2,41.5,30.18,WNW,285,0.0,0.0,50,0.00,,CLR,0.00,VWS V14.01,2013-04-19 05:46:00,
2013-04-18 22:51:00,59.5,41.9,30.18,WNW,285,0.0,0.0,52,0.00,,CLR,0.00,VWS V14.01,2013-04-19 05:51:00,
2013-04-18 22:56:00,58.9,41.3,30.18,WNW,285,0.0,0.0,52,0.00,,CLR,0.00,VWS V14.01,2013-04-19 05:56:00,
2013-04-18 23:01:00,58.8,41.7,30.17,WNW,284,0.0,0.0,53,0.00,,CLR,0.00,VWS V14.01,2013-04-19 06:01:00,
2013-04-18 23:06:00,58.6,42.0,30.17,WNW,284,0.0,1.0,54,0.00,,CLR,0.00,VWS V14.01,2013-04-19 06:06:00,
2013-04-18 23:11:00,58.4,41.8,30.17,WNW,284,0.0,1.0,54,0.00,,CLR,0.00,VWS V14.01,2013-04-19 06:11:00,
2013-04-18 23:16:00,58.3,41.8,30.17,WNW,284,0.0,1.0,54,0.00,,CLR,0.00,VWS V14.01,2013-04-19 06:16:00,
2013-04-18 23:21:00,58.4,42.3,30.17,West,281,0.0,1.0,55,0.00,,CLR,0.00,VWS V14.01,2013-04-19 06:21:00,
2013-04-18 23:26:00,58.1,42.5,30.17,West,281,0.0,1.0,56,0.00,,CLR,0.00,VWS V14.01,2013-04-19 06:26:00,
2013-04-18 23:31:00,57.7,42.6,30.17,West,281,0.0,1.0,57,0.00,,CLR,0.00,VWS V14.01,2013-04-19 06:31:00,
2013-04-18 23:36:00,57.5,42.8,30.18,West,281,0.0,0.0,58,0.00,,CLR,0.00,VWS V14.01,2013-04-19 06:36:00,
2013-04-18 23:41:00,57.3,42.7,30.17,West,281,0.0,0.0,58,0.00,,CLR,0.00,VWS V14.01,2013-04-19 06:41:00,
2013-04-18 23:46:00,57.6,42.5,30.17,West,281,0.0,0.0,57,0.00,,CLR,0.00,VWS V14.01,2013-04-19 06:46:00,
2013-04-18 23:51:00,57.4,42.8,30.17,West,281,0.0,0.0,58,0.00,,CLR,0.00,VWS V14.01,2013-04-19 06:51:00,
2013-04-18 23:56:00,57.2,43.0,30.17,West,281,0.0,0.0,59,0.00,,CLR,0.00,VWS V14.01,2013-04-19 06:56:00,